,,,PA_Meas_PMT16A,,PR_Meas_QMR101_102,,RH_Meas_QMH101,,SR_Meas_QMS101,,TA_Meas_QMH101,,GenWind,,GenWind,
date,time,status,PA,status,PR,status,RH,status,SR,status,TA,status,DirAvg,status,SpdAvg,
2014-05-20, 00:00:05,VALID,1012,VALID,0,INVALID,110.825,VALID,0,VALID,23.7135,VALID,117,VALID,0,
2014-05-20, 00:01:05,VALID,1011.97,VALID,0,INVALID,110.825,VALID,0,VALID,23.694,VALID,117,VALID,0,
2014-05-20, 00:02:05,VALID,1011.97,VALID,0,INVALID,110.81,VALID,0,VALID,23.694,VALID,117,VALID,0,
2014-05-20, 00:03:05,VALID,1011.91,VALID,0,INVALID,110.787,VALID,0,VALID,23.7135,VALID,117,VALID,0,
2014-05-20, 00:04:05,VALID,1011.92,VALID,0,INVALID,110.787,VALID,0,VALID,23.7135,VALID,117,VALID,0,
2014-05-20, 00:05:05,VALID,1011.91,VALID,0,INVALID,110.779,VALID,0,VALID,23.7135,VALID,117,VALID,0,
2014-05-20, 00:06:05,VALID,1011.88,VALID,0,INVALID,110.779,VALID,0,VALID,23.7135,VALID,117,VALID,0,
2014-05-20, 00:07:05,VALID,1011.87,VALID,0,INVALID,110.772,VALID,0.112112,VALID,23.694,VALID,117,VALID,0,
2014-05-20, 00:08:05,VALID,1011.86,VALID,0,INVALID,110.802,VALID,0,VALID,23.694,VALID,117,VALID,0,
2014-05-20, 00:09:05,VALID,1011.86,VALID,0,INVALID,110.772,VALID,0,VALID,23.694,VALID,117,VALID,0,
2014-05-20, 00:10:05,VALID,1011.86,VALID,0,INVALID,110.779,VALID,0,VALID,23.7153,VALID,117,VALID,0,
2014-05-20, 00:11:05,VALID,1011.86,VALID,0,INVALID,110.772,VALID,0,VALID,23.6745,VALID,117,VALID,0,
2014-05-20, 00:12:05,VALID,1011.88,VALID,0,INVALID,110.795,VALID,0,VALID,23.6745,VALID,114,VALID,0,
2014-05-20, 00:13:05,VALID,1011.85,VALID,0,INVALID,110.772,VALID,0,VALID,23.6745,VALID,114,VALID,0,
2014-05-20, 00:14:05,VALID,1011.86,VALID,0,INVALID,110.764,VALID,0,VALID,23.6958,VALID,111,VALID,0,
2014-05-20, 00:15:05,VALID,1011.87,VALID,0,INVALID,110.779,VALID,0,VALID,23.694,VALID,111,VALID,0,
2014-05-20, 00:16:05,VALID,1011.85,VALID,0,INVALID,110.764,VALID,0,VALID,23.6745,VALID,111,VALID,0,
2014-05-20, 00:17:05,VALID,1011.86,VALID,0,INVALID,110.787,VALID,0.112112,VALID,23.7153,VALID,111,VALID,0,
2014-05-20, 00:18:05,VALID,1011.85,VALID,0,INVALID,110.741,VALID,0.112112,VALID,23.6745,VALID,110,VALID,0,
2014-05-20, 00:19:05,VALID,1011.81,VALID,0,INVALID,110.741,VALID,0,VALID,23.6745,VALID,110,VALID,0,
2014-05-20, 00:20:05,VALID,1011.81,VALID,0,INVALID,110.749,VALID,0,VALID,23.6745,VALID,110,VALID,0,
2014-05-20, 00:21:05,VALID,1011.79,VALID,0,INVALID,110.756,VALID,0,VALID,23.6745,VALID,110,VALID,0,
2014-05-20, 00:22:05,VALID,1011.8,VALID,0,INVALID,110.756,VALID,0,VALID,23.6338,VALID,110,VALID,0,
2014-05-20, 00:23:05,VALID,1011.77,VALID,0,INVALID,110.734,VALID,0,VALID,23.655,VALID,110,VALID,0,
2014-05-20, 00:24:05,VALID,1011.77,VALID,0,INVALID,110.726,VALID,0,VALID,23.6745,VALID,110,VALID,0,
2014-05-20, 00:25:05,VALID,1011.73,VALID,0,INVALID,110.726,VALID,0,VALID,23.655,VALID,110,VALID,0,
2014-05-20, 00:26:05,VALID,1011.75,VALID,0,INVALID,110.695,VALID,0,VALID,23.655,VALID,110,VALID,0,
2014-05-20, 00:27:05,VALID,1011.75,VALID,0,INVALID,110.695,VALID,0,VALID,23.6745,VALID,110,VALID,0,
2014-05-20, 00:28:05,VALID,1011.73,VALID,0,INVALID,110.695,VALID,0,VALID,23.6745,VALID,110,VALID,0,
2014-05-20, 00:29:05,VALID,1011.72,VALID,0,INVALID,110.673,VALID,0,VALID,23.6745,VALID,110,VALID,0,
2014-05-20, 00:30:05,VALID,1011.73,VALID,0,INVALID,110.65,VALID,0,VALID,23.694,VALID,110,VALID,0,
2014-05-20, 00:31:05,VALID,1011.7,VALID,0,INVALID,110.657,VALID,0,VALID,23.7135,VALID,110,VALID,0,
2014-05-20, 00:32:05,VALID,1011.69,VALID,0,INVALID,110.634,VALID,0,VALID,23.7135,VALID,110,VALID,0,
2014-05-20, 00:33:05,VALID,1011.69,VALID,0,INVALID,110.634,VALID,0,VALID,23.7348,VALID,97,VALID,0,
2014-05-20, 00:34:05,VALID,1011.67,VALID,0,INVALID,110.665,VALID,0,VALID,23.7135,VALID,97,VALID,0,
2014-05-20, 00:35:05,VALID,1011.66,VALID,0,INVALID,110.68,VALID,0,VALID,23.733,VALID,97,VALID,0,
2014-05-20, 00:36:05,VALID,1011.67,VALID,0,INVALID,110.734,VALID,0,VALID,23.733,VALID,97,VALID,0,
2014-05-20, 00:37:05,VALID,1011.68,VALID,0,INVALID,110.703,VALID,0,VALID,23.733,VALID,97,VALID,0,
2014-05-20, 00:38:05,VALID,1011.66,VALID,0,INVALID,110.726,VALID,0,VALID,23.7543,VALID,97,VALID,0,
2014-05-20, 00:39:05,VALID,1011.67,VALID,0,INVALID,110.711,VALID,0,VALID,23.7738,VALID,97,VALID,0,
2014-05-20, 00:40:05,VALID,1011.66,VALID,0,INVALID,110.749,VALID,0,VALID,23.7525,VALID,97,VALID,0,
2014-05-20, 00:41:05,VALID,1011.65,VALID,0,INVALID,110.779,VALID,0,VALID,23.7543,VALID,97,VALID,0,
2014-05-20, 00:42:05,VALID,1011.66,VALID,0,INVALID,110.795,VALID,0,VALID,23.733,VALID,97,VALID,0,
2014-05-20, 00:43:05,VALID,1011.65,VALID,0,INVALID,110.81,VALID,0,VALID,23.733,VALID,97,VALID,0,
2014-05-20, 00:44:05,VALID,1011.65,VALID,0,INVALID,110.825,VALID,0,VALID,23.733,VALID,93,VALID,0,
2014-05-20, 00:45:05,VALID,1011.65,VALID,0,INVALID,110.856,VALID,0,VALID,23.7348,VALID,93,VALID,0,
2014-05-20, 00:46:05,VALID,1011.65,VALID,0,INVALID,110.878,VALID,0,VALID,23.7135,VALID,93,VALID,0,
2014-05-20, 00:47:05,VALID,1011.64,VALID,0,INVALID,110.878,VALID,0,VALID,23.694,VALID,93,VALID,0,
2014-05-20, 00:48:05,VALID,1011.61,VALID,0,INVALID,110.917,VALID,0,VALID,23.694,VALID,93,VALID,0,
2014-05-20, 00:49:05,VALID,1011.6,VALID,0,INVALID,110.917,VALID,0,VALID,23.6745,VALID,93,VALID,0,
2014-05-20, 00:50:05,VALID,1011.6,VALID,0,INVALID,110.909,VALID,0,VALID,23.6958,VALID,93,VALID,0,
2014-05-20, 00:51:05,VALID,1011.6,VALID,0,INVALID,110.924,VALID,0,VALID,23.6958,VALID,93,VALID,0,
2014-05-20, 00:52:05,VALID,1011.6,VALID,0,INVALID,110.917,VALID,0,VALID,23.655,VALID,93,VALID,0,
2014-05-20, 00:53:05,VALID,1011.58,VALID,0,INVALID,110.924,VALID,0,VALID,23.6568,VALID,93,VALID,0,
2014-05-20, 00:54:05,VALID,1011.6,VALID,0,INVALID,110.955,VALID,0,VALID,23.6568,VALID,93,VALID,0,
2014-05-20, 00:55:05,VALID,1011.55,VALID,0,INVALID,110.917,VALID,0,VALID,23.6568,VALID,93,VALID,0,
2014-05-20, 00:56:05,VALID,1011.58,VALID,0,INVALID,110.917,VALID,0,VALID,23.6161,VALID,93,VALID,0,
2014-05-20, 00:57:05,VALID,1011.58,VALID,0,INVALID,110.894,VALID,0,VALID,23.6179,VALID,93,VALID,0,
2014-05-20, 00:58:05,VALID,1011.56,VALID,0,INVALID,110.878,VALID,0,VALID,23.5966,VALID,93,VALID,0,
2014-05-20, 00:59:05,VALID,1011.51,VALID,0,INVALID,110.856,VALID,0,VALID,23.6373,VALID,93,VALID,0,
2014-05-20, 01:00:05,VALID,1011.51,VALID,0,INVALID,110.856,VALID,0,VALID,23.5966,VALID,93,VALID,0,
2014-05-20, 01:01:05,VALID,1011.47,VALID,0,INVALID,110.833,VALID,0,VALID,23.5966,VALID,93,VALID,0,
2014-05-20, 01:02:05,VALID,1011.46,VALID,0,INVALID,110.833,VALID,0,VALID,23.5966,VALID,93,VALID,0,
2014-05-20, 01:03:05,VALID,1011.46,VALID,0,INVALID,110.802,VALID,0,VALID,23.5966,VALID,93,VALID,0,
2014-05-20, 01:04:05,VALID,1011.42,VALID,0,INVALID,110.81,VALID,0,VALID,23.6179,VALID,93,VALID,0,
2014-05-20, 01:05:05,VALID,1011.45,VALID,0,INVALID,110.84,VALID,0,VALID,23.5966,VALID,93,VALID,0,
2014-05-20, 01:06:05,VALID,1011.42,VALID,0,INVALID,110.779,VALID,0,VALID,23.5984,VALID,93,VALID,0,
2014-05-20, 01:07:05,VALID,1011.39,VALID,0,INVALID,110.749,VALID,0,VALID,23.5966,VALID,93,VALID,0,
2014-05-20, 01:08:05,VALID,1011.4,VALID,0,INVALID,110.764,VALID,0,VALID,23.5984,VALID,93,VALID,0,
2014-05-20, 01:09:04,VALID,1011.41,VALID,0,INVALID,110.764,VALID,0,VALID,23.5576,VALID,93,VALID,0,
2014-05-20, 01:10:04,VALID,1011.38,VALID,0,INVALID,110.749,VALID,0,VALID,23.5771,VALID,93,VALID,0,
2014-05-20, 01:11:04,VALID,1011.41,VALID,0,INVALID,110.726,VALID,0,VALID,23.5771,VALID,93,VALID,0,
2014-05-20, 01:12:04,VALID,1011.4,VALID,0,INVALID,110.726,VALID,0,VALID,23.5984,VALID,93,VALID,0,
2014-05-20, 01:13:04,VALID,1011.38,VALID,0,INVALID,110.734,VALID,0,VALID,23.5789,VALID,93,VALID,0,
2014-05-20, 01:14:04,VALID,1011.35,VALID,0,INVALID,110.703,VALID,0,VALID,23.5576,VALID,93,VALID,0,
2014-05-20, 01:15:04,VALID,1011.35,VALID,0,INVALID,110.68,VALID,0,VALID,23.5576,VALID,93,VALID,0,
2014-05-20, 01:16:04,VALID,1011.35,VALID,0,INVALID,110.65,VALID,0,VALID,23.5576,VALID,93,VALID,0,
2014-05-20, 01:17:04,VALID,1011.35,VALID,0,INVALID,110.65,VALID,0,VALID,23.5789,VALID,93,VALID,0,
2014-05-20, 01:18:04,VALID,1011.32,VALID,0,INVALID,110.65,VALID,0,VALID,23.5789,VALID,93,VALID,0,
2014-05-20, 01:19:04,VALID,1011.31,VALID,0,INVALID,110.612,VALID,0,VALID,23.5789,VALID,93,VALID,0,
2014-05-20, 01:20:04,VALID,1011.32,VALID,0,INVALID,110.604,VALID,0,VALID,23.5576,VALID,93,VALID,0,
2014-05-20, 01:21:04,VALID,1011.33,VALID,0,INVALID,110.596,VALID,0,VALID,23.5984,VALID,93,VALID,0,
2014-05-20, 01:22:04,VALID,1011.32,VALID,0,INVALID,110.604,VALID,0,VALID,23.5576,VALID,93,VALID,0,
2014-05-20, 01:23:04,VALID,1011.33,VALID,0,INVALID,110.596,VALID,0,VALID,23.5789,VALID,93,VALID,0,
2014-05-20, 01:24:04,VALID,1011.31,VALID,0,INVALID,110.596,VALID,0,VALID,23.5771,VALID,93,VALID,0,
2014-05-20, 01:25:04,VALID,1011.3,VALID,0,INVALID,110.581,VALID,0,VALID,23.5576,VALID,93,VALID,0,
2014-05-20, 01:26:04,VALID,1011.31,VALID,0,INVALID,110.573,VALID,0,VALID,23.5576,VALID,93,VALID,0,
2014-05-20, 01:27:04,VALID,1011.28,VALID,0,INVALID,110.581,VALID,0,VALID,23.5381,VALID,93,VALID,0,
2014-05-20, 01:28:04,VALID,1011.3,VALID,0,INVALID,110.535,VALID,0,VALID,23.5789,VALID,93,VALID,0,
2014-05-20, 01:29:04,VALID,1011.26,VALID,0,INVALID,110.543,VALID,0,VALID,23.5576,VALID,93,VALID,0,
2014-05-20, 01:30:04,VALID,1011.27,VALID,0,INVALID,110.558,VALID,0,VALID,23.5576,VALID,93,VALID,0,
2014-05-20, 01:31:04,VALID,1011.22,VALID,0,INVALID,110.52,VALID,0,VALID,23.5576,VALID,93,VALID,0,
2014-05-20, 01:32:04,VALID,1011.27,VALID,0,INVALID,110.528,VALID,0.112112,VALID,23.5381,VALID,93,VALID,0,
2014-05-20, 01:33:04,VALID,1011.22,VALID,0,INVALID,110.512,VALID,0.112112,VALID,23.5381,VALID,93,VALID,0,
2014-05-20, 01:34:04,VALID,1011.2,VALID,0,INVALID,110.505,VALID,0,VALID,23.5186,VALID,93,VALID,0,
2014-05-20, 01:35:04,VALID,1011.2,VALID,0,INVALID,110.497,VALID,0.112112,VALID,23.5186,VALID,93,VALID,0,
2014-05-20, 01:36:04,VALID,1011.16,VALID,0,INVALID,110.535,VALID,0,VALID,23.5186,VALID,73,VALID,0,
2014-05-20, 01:37:04,VALID,1011.14,VALID,0,INVALID,110.505,VALID,0,VALID,23.4992,VALID,74,VALID,0,
2014-05-20, 01:38:04,VALID,1011.13,VALID,0,INVALID,110.505,VALID,0,VALID,23.4797,VALID,78,VALID,0,
2014-05-20, 01:39:04,VALID,1011.11,VALID,0,INVALID,110.451,VALID,0,VALID,23.4797,VALID,78,VALID,0,
2014-05-20, 01:40:04,VALID,1011.1,VALID,0,INVALID,110.459,VALID,0,VALID,23.4797,VALID,78,VALID,0,
2014-05-20, 01:41:04,VALID,1011.09,VALID,0,INVALID,110.406,VALID,0,VALID,23.4602,VALID,78,VALID,0,
2014-05-20, 01:42:04,VALID,1011.07,VALID,0,INVALID,110.413,VALID,0,VALID,23.4602,VALID,78,VALID,0,
2014-05-20, 01:43:04,VALID,1011.08,VALID,0,INVALID,110.421,VALID,0,VALID,23.4602,VALID,78,VALID,0,
2014-05-20, 01:44:04,VALID,1011.06,VALID,0,INVALID,110.375,VALID,0,VALID,23.4602,VALID,78,VALID,0,
2014-05-20, 01:45:04,VALID,1011.07,VALID,0,INVALID,110.383,VALID,0,VALID,23.4602,VALID,78,VALID,0,
2014-05-20, 01:46:04,VALID,1011.07,VALID,0,INVALID,110.352,VALID,0,VALID,23.4602,VALID,78,VALID,0,
2014-05-20, 01:47:04,VALID,1011.07,VALID,0,INVALID,110.337,VALID,0,VALID,23.4602,VALID,78,VALID,0,
2014-05-20, 01:48:04,VALID,1011.07,VALID,0,INVALID,110.337,VALID,0,VALID,23.4407,VALID,78,VALID,0,
2014-05-20, 01:49:04,VALID,1011.04,VALID,0,INVALID,110.314,VALID,0,VALID,23.4602,VALID,78,VALID,0,
2014-05-20, 01:50:04,VALID,1011.03,VALID,0,INVALID,110.307,VALID,0,VALID,23.4602,VALID,78,VALID,0,
2014-05-20, 01:51:04,VALID,1011.06,VALID,0,INVALID,110.276,VALID,0,VALID,23.4602,VALID,78,VALID,0,
2014-05-20, 01:52:04,VALID,1011.03,VALID,0,INVALID,110.261,VALID,0,VALID,23.4602,VALID,78,VALID,0,
2014-05-20, 01:53:04,VALID,1011.06,VALID,0,INVALID,110.268,VALID,0,VALID,23.4602,VALID,93,VALID,0,
2014-05-20, 01:54:04,VALID,1011.05,VALID,0,INVALID,110.23,VALID,0,VALID,23.4602,VALID,85,VALID,0,
2014-05-20, 01:55:04,VALID,1011.06,VALID,0,INVALID,110.23,VALID,0,VALID,23.4602,VALID,85,VALID,0,
2014-05-20, 01:56:04,VALID,1011.05,VALID,0,INVALID,110.185,VALID,0,VALID,23.4602,VALID,85,VALID,0,
2014-05-20, 01:57:04,VALID,1011.03,VALID,0,INVALID,110.2,VALID,0,VALID,23.4797,VALID,85,VALID,0,
2014-05-20, 01:58:04,VALID,1011.01,VALID,0,INVALID,110.177,VALID,0,VALID,23.4815,VALID,85,VALID,0,
2014-05-20, 01:59:04,VALID,1011.01,VALID,0,INVALID,110.162,VALID,0,VALID,23.4602,VALID,83,VALID,0,
2014-05-20, 02:00:04,VALID,1010.99,VALID,0,INVALID,110.162,VALID,0,VALID,23.4815,VALID,76,VALID,0,
2014-05-20, 02:01:04,VALID,1011,VALID,0,INVALID,110.154,VALID,0,VALID,23.4602,VALID,76,VALID,0,
2014-05-20, 02:02:04,VALID,1011.01,VALID,0,INVALID,110.108,VALID,0,VALID,23.4797,VALID,76,VALID,0,
2014-05-20, 02:03:04,VALID,1011.02,VALID,0,INVALID,110.154,VALID,0,VALID,23.4815,VALID,83,VALID,0,
2014-05-20, 02:04:04,VALID,1011,VALID,0,INVALID,110.131,VALID,0,VALID,23.4602,VALID,92,VALID,0,
2014-05-20, 02:05:04,VALID,1011.03,VALID,0,INVALID,110.131,VALID,0,VALID,23.4407,VALID,92,VALID,0,
2014-05-20, 02:06:04,VALID,1011.04,VALID,0,INVALID,110.116,VALID,0,VALID,23.462,VALID,88,VALID,0,
2014-05-20, 02:07:04,VALID,1011.03,VALID,0,INVALID,110.093,VALID,0,VALID,23.4407,VALID,84,VALID,0,
2014-05-20, 02:08:04,VALID,1011.01,VALID,0,INVALID,110.085,VALID,0,VALID,23.462,VALID,83,VALID,0,
2014-05-20, 02:09:04,VALID,1011.04,VALID,0,INVALID,110.085,VALID,0,VALID,23.4407,VALID,76,VALID,0,
2014-05-20, 02:10:04,VALID,1011.02,VALID,0,INVALID,110.085,VALID,0,VALID,23.4425,VALID,69,VALID,0,
2014-05-20, 02:11:04,VALID,1011.05,VALID,0,INVALID,110.055,VALID,0,VALID,23.4425,VALID,68,VALID,0,
2014-05-20, 02:12:04,VALID,1011.01,VALID,0,INVALID,109.994,VALID,0,VALID,23.4407,VALID,68,VALID,0,
2014-05-20, 02:13:04,VALID,1011.04,VALID,0,INVALID,110.001,VALID,0,VALID,23.4407,VALID,75,VALID,0,
2014-05-20, 02:14:04,VALID,1011.03,VALID,0,INVALID,109.994,VALID,0,VALID,23.4407,VALID,90,VALID,0,
2014-05-20, 02:15:04,VALID,1011.02,VALID,0,INVALID,109.94,VALID,0,VALID,23.4407,VALID,95,VALID,0,
2014-05-20, 02:16:04,VALID,1011,VALID,0,INVALID,109.918,VALID,0,VALID,23.4602,VALID,95,VALID,0,
2014-05-20, 02:17:04,VALID,1010.99,VALID,0,INVALID,109.91,VALID,0,VALID,23.4815,VALID,96,VALID,0,
2014-05-20, 02:18:04,VALID,1010.98,VALID,0,INVALID,109.895,VALID,0,VALID,23.4602,VALID,98,VALID,0,
2014-05-20, 02:19:04,VALID,1011.01,VALID,0,INVALID,109.872,VALID,0,VALID,23.4797,VALID,98,VALID,0,
2014-05-20, 02:20:04,VALID,1011,VALID,0,INVALID,109.849,VALID,0,VALID,23.4797,VALID,98,VALID,0,
2014-05-20, 02:21:04,VALID,1010.96,VALID,0,INVALID,109.811,VALID,0,VALID,23.4992,VALID,98,VALID,0,
2014-05-20, 02:22:04,VALID,1010.95,VALID,0,INVALID,109.818,VALID,0,VALID,23.4797,VALID,108,VALID,0,
2014-05-20, 02:23:04,VALID,1010.94,VALID,0,INVALID,109.834,VALID,0,VALID,23.5009,VALID,97,VALID,0,
2014-05-20, 02:24:04,VALID,1010.96,VALID,0,INVALID,109.864,VALID,0,VALID,23.4407,VALID,80,VALID,0,
2014-05-20, 02:25:04,VALID,1010.94,VALID,0,INVALID,109.834,VALID,0,VALID,23.4602,VALID,83,VALID,0,
2014-05-20, 02:26:04,VALID,1010.96,VALID,0,INVALID,109.78,VALID,0,VALID,23.462,VALID,103,VALID,0,
2014-05-20, 02:27:04,VALID,1010.95,VALID,0,INVALID,109.773,VALID,0,VALID,23.462,VALID,69,VALID,0,
2014-05-20, 02:28:04,VALID,1010.94,VALID,0,INVALID,109.727,VALID,0,VALID,23.5009,VALID,68,VALID,0,
2014-05-20, 02:29:04,VALID,1010.92,VALID,0,INVALID,109.757,VALID,0,VALID,23.4815,VALID,72,VALID,0,
2014-05-20, 02:30:04,VALID,1010.94,VALID,0,INVALID,109.75,VALID,0,VALID,23.4602,VALID,73,VALID,0,
2014-05-20, 02:31:04,VALID,1010.94,VALID,0,INVALID,109.712,VALID,0,VALID,23.4797,VALID,73,VALID,0,
2014-05-20, 02:32:04,VALID,1010.92,VALID,0,INVALID,109.727,VALID,0,VALID,23.4992,VALID,73,VALID,0,
2014-05-20, 02:33:04,VALID,1010.91,VALID,0,INVALID,109.719,VALID,0,VALID,23.4797,VALID,76,VALID,0,
2014-05-20, 02:34:04,VALID,1010.91,VALID,0,INVALID,109.742,VALID,0,VALID,23.4602,VALID,72,VALID,0,
2014-05-20, 02:35:04,VALID,1010.91,VALID,0,INVALID,109.735,VALID,0,VALID,23.4797,VALID,68,VALID,0,
2014-05-20, 02:36:04,VALID,1010.9,VALID,0,INVALID,109.712,VALID,0.112112,VALID,23.4797,VALID,83,VALID,0,
2014-05-20, 02:37:04,VALID,1010.9,VALID,0,INVALID,109.704,VALID,0,VALID,23.4992,VALID,83,VALID,0,
2014-05-20, 02:38:04,VALID,1010.92,VALID,0,INVALID,109.689,VALID,0,VALID,23.5186,VALID,83,VALID,0,
2014-05-20, 02:39:04,VALID,1010.9,VALID,0,INVALID,109.696,VALID,0,VALID,23.5186,VALID,83,VALID,0,
2014-05-20, 02:40:04,VALID,1010.88,VALID,0,INVALID,109.704,VALID,0,VALID,23.5186,VALID,83,VALID,0,
2014-05-20, 02:41:04,VALID,1010.9,VALID,0,INVALID,109.719,VALID,0,VALID,23.5186,VALID,83,VALID,0,
2014-05-20, 02:42:04,VALID,1010.88,VALID,0,INVALID,109.742,VALID,0,VALID,23.5186,VALID,83,VALID,0,
2014-05-20, 02:43:04,VALID,1010.88,VALID,0,INVALID,109.674,VALID,0,VALID,23.5381,VALID,83,VALID,0,
2014-05-20, 02:44:04,VALID,1010.88,VALID,0,INVALID,109.727,VALID,0,VALID,23.5399,VALID,98,VALID,0,
2014-05-20, 02:45:04,VALID,1010.89,VALID,0,INVALID,109.704,VALID,0,VALID,23.5381,VALID,97,VALID,0,
2014-05-20, 02:46:04,VALID,1010.92,VALID,0,INVALID,109.674,VALID,0,VALID,23.5381,VALID,96,VALID,0,
2014-05-20, 02:47:04,VALID,1010.91,VALID,0,INVALID,109.742,VALID,0,VALID,23.4974,VALID,96,VALID,0,
2014-05-20, 02:48:04,VALID,1010.9,VALID,0,INVALID,109.742,VALID,0,VALID,23.5381,VALID,96,VALID,0,
2014-05-20, 02:49:04,VALID,1010.92,VALID,0,INVALID,109.727,VALID,0,VALID,23.5576,VALID,96,VALID,0,
2014-05-20, 02:50:04,VALID,1010.95,VALID,0,INVALID,109.727,VALID,0,VALID,23.5381,VALID,96,VALID,0,
2014-05-20, 02:51:04,VALID,1010.95,VALID,0,INVALID,109.788,VALID,0,VALID,23.5381,VALID,86,VALID,0,
2014-05-20, 02:52:04,VALID,1010.92,VALID,0,INVALID,109.796,VALID,0,VALID,23.5594,VALID,75,VALID,0,
2014-05-20, 02:53:04,VALID,1010.95,VALID,0,INVALID,109.773,VALID,0,VALID,23.5381,VALID,98,VALID,0,
2014-05-20, 02:54:04,VALID,1010.95,VALID,0,INVALID,109.803,VALID,0,VALID,23.5381,VALID,67,VALID,0,
2014-05-20, 02:55:04,VALID,1010.99,VALID,0,INVALID,109.811,VALID,0,VALID,23.5576,VALID,83,VALID,0,
2014-05-20, 02:56:04,VALID,1010.98,VALID,0,INVALID,109.818,VALID,0,VALID,23.5576,VALID,83,VALID,0,
2014-05-20, 02:57:04,VALID,1010.98,VALID,0,INVALID,109.857,VALID,0,VALID,23.5576,VALID,97,VALID,0,
2014-05-20, 02:58:04,VALID,1010.98,VALID,0,INVALID,109.818,VALID,0,VALID,23.5771,VALID,96,VALID,0,
2014-05-20, 02:59:04,VALID,1011.02,VALID,0,INVALID,109.864,VALID,0,VALID,23.5771,VALID,78,VALID,0,
2014-05-20, 03:00:04,VALID,1011.02,VALID,0,INVALID,109.91,VALID,0,VALID,23.5381,VALID,85,VALID,0,
2014-05-20, 03:01:04,VALID,1011.04,VALID,0,INVALID,109.933,VALID,0,VALID,23.5381,VALID,85,VALID,0,
2014-05-20, 03:02:04,VALID,1011.02,VALID,0,INVALID,109.979,VALID,0,VALID,23.5594,VALID,85,VALID,0,
2014-05-20, 03:03:04,VALID,1011.04,VALID,0,INVALID,109.963,VALID,0,VALID,23.5771,VALID,89,VALID,0,
2014-05-20, 03:04:04,VALID,1011.02,VALID,0,INVALID,109.994,VALID,0,VALID,23.5771,VALID,89,VALID,0,
2014-05-20, 03:05:04,VALID,1011.03,VALID,0,INVALID,110.009,VALID,0,VALID,23.5771,VALID,106,VALID,0,
2014-05-20, 03:06:04,VALID,1011.02,VALID,0,INVALID,110.017,VALID,0.112112,VALID,23.5966,VALID,115,VALID,0,
2014-05-20, 03:07:04,VALID,1011.02,VALID,0,INVALID,110.024,VALID,0.112112,VALID,23.5966,VALID,121,VALID,0,
2014-05-20, 03:08:04,VALID,1011.04,VALID,0,INVALID,110.093,VALID,0,VALID,23.5966,VALID,84,VALID,0,
2014-05-20, 03:09:04,VALID,1011.06,VALID,0,INVALID,110.124,VALID,0,VALID,23.5771,VALID,84,VALID,0,
2014-05-20, 03:10:04,VALID,1011.05,VALID,0,INVALID,110.131,VALID,0,VALID,23.5966,VALID,84,VALID,0,
2014-05-20, 03:11:04,VALID,1011.09,VALID,0,INVALID,110.192,VALID,0,VALID,23.5966,VALID,109,VALID,0,
2014-05-20, 03:12:04,VALID,1011.06,VALID,0,INVALID,110.192,VALID,0,VALID,23.5966,VALID,109,VALID,0,
2014-05-20, 03:13:04,VALID,1011.06,VALID,0,INVALID,110.299,VALID,0,VALID,23.5771,VALID,100,VALID,0,
2014-05-20, 03:14:04,VALID,1011.07,VALID,0,INVALID,110.337,VALID,0,VALID,23.5576,VALID,115,VALID,0,
2014-05-20, 03:15:04,VALID,1011.09,VALID,0,INVALID,110.345,VALID,0.112112,VALID,23.5771,VALID,119,VALID,0,
2014-05-20, 03:16:04,VALID,1011.09,VALID,0,INVALID,110.375,VALID,0.112112,VALID,23.5771,VALID,119,VALID,0,
2014-05-20, 03:17:04,VALID,1011.06,VALID,0,INVALID,110.413,VALID,0,VALID,23.5576,VALID,119,VALID,0,
2014-05-20, 03:18:04,VALID,1011.05,VALID,0,INVALID,110.444,VALID,0,VALID,23.5771,VALID,119,VALID,0,
2014-05-20, 03:19:04,VALID,1011.04,VALID,0,INVALID,110.436,VALID,0,VALID,23.5984,VALID,119,VALID,0,
2014-05-20, 03:20:04,VALID,1011.06,VALID,0,INVALID,110.543,VALID,0,VALID,23.5771,VALID,111,VALID,0,
2014-05-20, 03:21:04,VALID,1011.04,VALID,0,INVALID,110.566,VALID,0,VALID,23.5771,VALID,111,VALID,0,
2014-05-20, 03:22:04,VALID,1011.03,VALID,0,INVALID,110.596,VALID,0,VALID,23.5771,VALID,86,VALID,0,
2014-05-20, 03:23:04,VALID,1011,VALID,0,INVALID,110.68,VALID,0,VALID,23.5558,VALID,86,VALID,0,
2014-05-20, 03:24:04,VALID,1011.01,VALID,0,INVALID,110.718,VALID,0,VALID,23.5576,VALID,86,VALID,0,
2014-05-20, 03:25:04,VALID,1011,VALID,0,INVALID,110.749,VALID,0,VALID,23.5771,VALID,113,VALID,0,
2014-05-20, 03:26:04,VALID,1011.01,VALID,0,INVALID,110.825,VALID,0,VALID,23.5576,VALID,97,VALID,0,
2014-05-20, 03:27:04,VALID,1011,VALID,0,INVALID,110.878,VALID,0,VALID,23.5576,VALID,89,VALID,0,
2014-05-20, 03:28:04,VALID,1010.99,VALID,0,INVALID,110.939,VALID,0,VALID,23.5576,VALID,89,VALID,0,
2014-05-20, 03:29:04,VALID,1010.98,VALID,0,INVALID,110.97,VALID,0,VALID,23.5789,VALID,80,VALID,0,
2014-05-20, 03:30:04,VALID,1011,VALID,0,INVALID,111.031,VALID,0.112112,VALID,23.5771,VALID,73,VALID,0,
2014-05-20, 03:31:04,VALID,1011.02,VALID,0,INVALID,111.084,VALID,0,VALID,23.5576,VALID,85,VALID,0,
2014-05-20, 03:32:04,VALID,1011.04,VALID,0,INVALID,111.077,VALID,0.112112,VALID,23.5576,VALID,85,VALID,0,
2014-05-20, 03:33:04,VALID,1011.03,VALID,0,INVALID,111.153,VALID,0,VALID,23.5576,VALID,85,VALID,0,
2014-05-20, 03:34:04,VALID,1011.04,VALID,0,INVALID,111.138,VALID,0,VALID,23.5576,VALID,85,VALID,0,
2014-05-20, 03:35:04,VALID,1011.07,VALID,0,INVALID,111.206,VALID,0.112112,VALID,23.5576,VALID,106,VALID,0,
2014-05-20, 03:36:04,VALID,1011.05,VALID,0,INVALID,111.26,VALID,0,VALID,23.5399,VALID,122,VALID,0,
2014-05-20, 03:37:04,VALID,1011.07,VALID,0,INVALID,111.298,VALID,0,VALID,23.5381,VALID,65,VALID,0,
2014-05-20, 03:38:04,VALID,1011.08,VALID,0,INVALID,111.344,VALID,0,VALID,23.5186,VALID,101,VALID,0,
2014-05-20, 03:39:04,VALID,1011.08,VALID,0,INVALID,111.382,VALID,0,VALID,23.5186,VALID,99,VALID,0,
2014-05-20, 03:40:04,VALID,1011.09,VALID,0,INVALID,111.367,VALID,0,VALID,23.5381,VALID,89,VALID,0,
2014-05-20, 03:41:04,VALID,1011.08,VALID,0,INVALID,111.374,VALID,0,VALID,23.5381,VALID,89,VALID,0,
2014-05-20, 03:42:04,VALID,1011.08,VALID,0,INVALID,111.42,VALID,0,VALID,23.4974,VALID,89,VALID,0,
2014-05-20, 03:43:04,VALID,1011.06,VALID,0,INVALID,111.42,VALID,0,VALID,23.5186,VALID,106,VALID,0,
2014-05-20, 03:44:04,VALID,1011.06,VALID,0,INVALID,111.435,VALID,0,VALID,23.5186,VALID,106,VALID,0,
2014-05-20, 03:45:04,VALID,1011.04,VALID,0,INVALID,111.466,VALID,0,VALID,23.5186,VALID,93,VALID,0,
2014-05-20, 03:46:04,VALID,1011.04,VALID,0,INVALID,111.45,VALID,0,VALID,23.5186,VALID,112,VALID,0,
2014-05-20, 03:47:04,VALID,1011.06,VALID,0,INVALID,111.458,VALID,0,VALID,23.5186,VALID,112,VALID,0,
2014-05-20, 03:48:04,VALID,1011.04,VALID,0,INVALID,111.458,VALID,0,VALID,23.4992,VALID,111,VALID,0,
2014-05-20, 03:49:04,VALID,1011.07,VALID,0,INVALID,111.428,VALID,0,VALID,23.4797,VALID,76,VALID,0,
2014-05-20, 03:50:04,VALID,1011.09,VALID,0,INVALID,111.458,VALID,0,VALID,23.4992,VALID,81,VALID,0,
2014-05-20, 03:51:04,VALID,1011.08,VALID,0,INVALID,111.458,VALID,0,VALID,23.5204,VALID,83,VALID,0,
2014-05-20, 03:52:04,VALID,1011.12,VALID,0,INVALID,111.458,VALID,0,VALID,23.4797,VALID,83,VALID,0,
2014-05-20, 03:53:04,VALID,1011.08,VALID,0,INVALID,111.458,VALID,0,VALID,23.4992,VALID,77,VALID,0,
2014-05-20, 03:54:04,VALID,1011.09,VALID,0,INVALID,111.45,VALID,0,VALID,23.5204,VALID,84,VALID,0,
2014-05-20, 03:55:04,VALID,1011.08,VALID,0,INVALID,111.458,VALID,0,VALID,23.4992,VALID,80,VALID,0,
2014-05-20, 03:56:04,VALID,1011.06,VALID,0,INVALID,111.443,VALID,0,VALID,23.5186,VALID,80,VALID,0,